WET,Max TemperatureF,Mean TemperatureF,Min TemperatureF,Max Dew PointF,MeanDew PointF,Min DewpointF,Max Humidity, Mean Humidity, Min Humidity, Max Sea Level PressureIn, Mean Sea Level PressureIn, Min Sea Level PressureIn, Max VisibilityMiles, Mean VisibilityMiles, Min VisibilityMiles, Max Wind SpeedMPH, Mean Wind SpeedMPH, Max Gust SpeedMPH,PrecipitationIn, CloudCover, Events, WindDirDegrees
2012-10-1,77,67,57,60,58,54,94,73,43,30.18,30.14,30.05,6,5,4,9,4,,0.00,2,,70
2012-10-2,82,70,57,59,56,54,88,62,31,30.18,30.15,30.02,6,6,6,8,4,,0.00,1,,298
2012-10-3,90,75,60,57,51,41,73,46,12,30.15,30.05,29.87,6,6,6,12,7,,0.00,2,,107
2012-10-4,87,73,59,61,50,43,53,40,17,30.01,29.96,29.83,6,6,6,8,6,,0.00,6,,240
2012-10-5,78,72,64,61,59,56,83,60,40,30.18,30.09,29.99,5,4,3,8,3,,0.00,6,,321
2012-10-6,85,72,58,59,57,53,82,61,33,30.21,30.13,30.01,6,5,5,8,4,,0.00,1,,8
2012-10-7,91,76,62,61,52,45,73,46,12,30.21,30.14,29.99,6,6,6,10,5,,0.00,,,201
2012-10-8,90,75,60,61,53,48,69,44,20,30.18,30.13,30.01,6,6,6,10,4,,0.00,1,,215
2012-10-9,90,77,64,59,54,50,64,45,21,30.09,30.05,29.91,6,6,6,12,4,,0.00,1,,255
2012-10-10,83,73,63,61,55,48,88,55,25,30.12,30.06,29.96,6,5,4,7,3,,0.00,4,,255
2012-10-11,79,70,60,63,59,55,100,76,34,30.12,30.08,29.96,6,4,0,10,3,,0.00,3,Fog,307
2012-10-12,76,68,59,63,58,53,94,71,36,30.15,30.08,29.99,6,5,3,10,5,,0.00,5,,303
2012-10-13,74,64,55,55,51,45,88,64,24,30.12,30.07,29.96,6,6,6,9,2,,0.00,2,,286
2012-10-14,73,62,52,57,52,48,88,67,28,30.06,29.98,29.87,6,6,6,9,4,,0.00,3,,277
2012-10-15,69,61,51,59,53,44,94,74,46,30.07,30.00,29.92,6,5,2,16,7,,0.00,5,Rain,266
2012-10-16,79,64,48,48,44,43,82,56,20,30.06,29.98,29.86,6,6,6,9,5,,0.00,,,118
2012-10-17,85,69,53,52,44,39,64,37,15,29.98,29.89,29.75,6,6,6,7,2,,0.00,6,,319
2012-10-18,80,68,55,57,50,39,88,57,27,29.86,29.75,29.64,6,6,3,16,5,,0.47,5,Rain,251
2012-10-19,59,56,53,52,51,48,94,80,66,29.92,29.87,29.80,6,5,3,13,5,,0.00,6,Rain,156
2012-10-20,62,56,51,52,50,46,94,85,55,30.04,29.92,29.86,6,5,4,10,4,,0.04,5,,218
2012-10-21,70,60,50,51,46,39,88,64,25,30.06,30.04,29.98,6,6,6,12,4,,0.00,4,,155
2012-10-22,79,65,51,52,48,43,82,52,25,30.09,30.04,29.93,6,6,6,8,5,,0.00,5,,98
2012-10-23,88,77,66,54,47,43,60,36,15,30.09,30.03,29.89,6,6,6,12,8,,0.00,4,,170
2012-10-24,82,74,66,61,54,48,83,51,23,30.01,29.96,29.84,6,6,6,14,7,,0.00,3,,302
2012-10-25,77,70,62,60,55,48,83,66,36,29.95,29.87,29.75,6,5,4,21,8,32,0.01,5,,226
2012-10-26,70,65,60,59,55,52,94,72,50,29.86,29.83,29.77,6,5,4,18,9,28,0.12,6,Rain,242
2012-10-27,67,62,57,57,56,54,94,85,57,29.95,29.88,29.81,4,4,3,14,10,,0.08,6,Rain,251
2012-10-28,67,61,55,57,54,51,94,79,53,30.04,29.99,29.94,6,5,0,43,7,,0.00,6,,245
2012-10-29,64,57,50,56,52,48,94,82,60,30.01,29.91,29.80,6,4,3,8,5,,0.20,7,Rain,167
2012-10-30,65,61,57,61,59,55,94,88,74,29.80,29.65,29.50,4,3,3,24,10,46,0.43,7,Rain,224
2012-10-31,66,61,56,63,59,55,94,88,77,29.77,29.66,29.49,4,3,2,13,7,28,0.20,6,Rain,254